| time (UTC) | temp F | wind direction | speed MPH | gust MPH | rain 1hr in | rain 24hr in | rain mn in | humidity % | barometer mb |
| 20260510174547 | 85 | 62 | 3.0 | 9.0 | 0.00 | 0.00 | 0.00 | 67 | 1011.9 |
| 20260510173046 | 85 | 86 | 7.0 | 10.0 | 0.00 | 0.00 | 0.00 | 67 | 1011.9 |
| 20260510171545 | 85 | 91 | 4.0 | 8.0 | 0.00 | 0.00 | 0.00 | 66 | 1012.0 |
| 20260510170046 | 84 | 66 | 4.0 | 8.0 | 0.00 | 0.00 | 0.00 | 65 | 1011.8 |
| 20260510164548 | 84 | 65 | 3.0 | 8.0 | 0.00 | 0.00 | 0.00 | 65 | 1012.0 |
| 20260510163051 | 85 | 60 | 3.0 | 7.0 | 0.00 | 0.00 | 0.00 | 66 | 1011.8 |
| 20260510161553 | 86 | 33 | 2.0 | 5.0 | 0.00 | 0.00 | 0.00 | 63 | 1011.8 |
| 20260510160051 | 87 | 65 | 0.0 | 3.0 | 0.00 | 0.00 | 0.00 | 62 | 1011.7 |
| 20260510154534 | 87 | 69 | 1.0 | 4.0 | 0.00 | 0.00 | 0.00 | 62 | 1011.5 |
| 20260510153039 | 85 | 290 | 0.0 | 5.0 | 0.00 | 0.00 | 0.00 | 66 | 1011.6 |
| 20260510151535 | 86 | 294 | 0.0 | 2.0 | 0.00 | 0.00 | 0.00 | 64 | 1011.5 |
| 20260510150033 | 87 | 316 | 0.0 | 2.0 | 0.00 | 0.00 | 0.00 | 65 | 1011.7 |
| 20260510144537 | 84 | 56 | 0.0 | 1.0 | 0.00 | 0.00 | 0.00 | 71 | 1011.5 |
| 20260510143039 | 81 | 264 | 0.0 | 1.0 | 0.00 | 0.00 | 0.00 | 77 | 1011.7 |
| 20260510141532 | 78 | 277 | 1.0 | 5.0 | 0.00 | 0.00 | 0.00 | 79 | 1011.6 |
| 20260510140021 | 77 | 285 | 1.0 | 5.0 | 0.00 | 0.00 | 0.00 | 79 | 1011.7 |
| 20260510134515 | 75 | 277 | 0.0 | 5.0 | 0.00 | 0.00 | 0.00 | 78 | 1011.7 |
| 20260510133022 | 74 | 295 | 1.0 | 6.0 | 0.00 | 0.00 | 0.00 | 71 | 1011.6 |
| 20260510131514 | 73 | 271 | 1.0 | 6.0 | 0.00 | 0.00 | 0.00 | 59 | 1011.5 |
| 20260510130016 | 73 | 262 | 1.0 | 3.0 | 0.00 | 0.00 | 0.00 | 55 | 1011.4 |
| 20260510124516 | 71 | 255 | 0.0 | 2.0 | 0.00 | 0.00 | 0.00 | 52 | 1011.3 |
| 20260510123012 | 71 | 252 | 0.0 | 0.0 | 0.00 | 0.00 | 0.00 | 43 | 1011.1 |
| 20260510121512 | 71 | 252 | 1.0 | 3.0 | 0.00 | 0.00 | 0.00 | 48 | 1011.0 |
| 20260510120012 | 71 | 221 | 1.0 | 3.0 | 0.00 | 0.00 | 0.00 | 62 | 1010.8 |
| 20260510114510 | 71 | 203 | 0.0 | 1.0 | 0.00 | 0.00 | 0.00 | 59 | 1010.8 |
| 20260510113013 | 71 | 92 | 0.0 | 0.0 | 0.00 | 0.00 | 0.00 | 55 | 1010.9 |
| 20260510111506 | 71 | 89 | 0.0 | 0.0 | 0.00 | 0.00 | 0.00 | 26 | 1010.6 |
| 20260510110005 | 72 | 89 | 0.0 | 0.0 | 0.00 | 0.00 | 0.00 | 22 | 1010.6 |
| 20260510104502 | 72 | 89 | 0.0 | 0.0 | 0.00 | 0.00 | 0.00 | 24 | 1010.7 |
| 20260510103002 | 72 | 89 | 0.0 | 0.0 | 0.00 | 0.00 | 0.00 | 26 | 1010.7 |
| 20260510101559 | 72 | 89 | 0.0 | 1.0 | 0.00 | 0.00 | 0.00 | 32 | 1010.7 |
| 20260510100057 | 73 | 89 | 0.0 | 1.0 | 0.00 | 0.00 | 0.00 | 39 | 1010.8 |
| 20260510094555 | 73 | 89 | 0.0 | 3.0 | 0.00 | 0.00 | 0.00 | 40 | 1010.8 |
| 20260510093104 | 73 | 68 | 3.0 | 5.0 | 0.00 | 0.00 | 0.00 | 43 | 1010.8 |
| 20260510091555 | 73 | 86 | 3.0 | 5.0 | 0.00 | 0.00 | 0.00 | 44 | 1011.0 |
| 20260510090051 | 73 | 71 | 2.0 | 6.0 | 0.00 | 0.00 | 0.00 | 49 | 1011.0 |
| 20260510084551 | 73 | 75 | 4.0 | 7.0 | 0.00 | 0.00 | 0.00 | 55 | 1011.1 |
| 20260510083049 | 74 | 86 | 3.0 | 7.0 | 0.00 | 0.00 | 0.00 | 57 | 1011.1 |
| 20260510081605 | 74 | 98 | 4.0 | 7.0 | 0.00 | 0.00 | 0.00 | 61 | 1011.2 |
| 20260510080039 | 74 | 74 | 6.0 | 9.0 | 0.00 | 0.00 | 0.00 | 65 | 1011.2 |
| 20260510074535 | 74 | 68 | 6.0 | 11.0 | 0.00 | 0.00 | 0.00 | 68 | 1011.2 |
| 20260510073039 | 75 | 61 | 2.0 | 7.0 | 0.00 | 0.00 | 0.00 | 71 | 1011.3 |
| 20260510071529 | 75 | 97 | 3.0 | 5.0 | 0.00 | 0.00 | 0.00 | 77 | 1011.2 |
| 20260510070028 | 75 | 71 | 2.0 | 5.0 | 0.00 | 0.00 | 0.00 | 78 | 1011.2 |
| 20260510064535 | 75 | 67 | 0.0 | 3.0 | 0.00 | 0.00 | 0.00 | 78 | 1011.2 |
| 20260510063036 | 75 | 65 | 0.0 | 1.0 | 0.00 | 0.00 | 0.00 | 78 | 1011.4 |
| 20260510061527 | 75 | 65 | 0.0 | 1.0 | 0.00 | 0.00 | 0.00 | 79 | 1011.5 |
| 20260510060035 | 75 | 65 | 1.0 | 2.0 | 0.00 | 0.00 | 0.00 | 79 | 1011.6 |
| 20260510054523 | 75 | 65 | 0.0 | 3.0 | 0.00 | 0.00 | 0.00 | 79 | 1011.5 |
| 20260510053034 | 75 | 66 | 0.0 | 3.0 | 0.00 | 0.00 | 0.00 | 79 | 1011.5 |
| 20260510051523 | 76 | 67 | 2.0 | 4.0 | 0.00 | 0.00 | 0.00 | 79 | 1011.6 |
| 20260510050018 | 76 | 77 | 1.0 | 3.0 | 0.00 | 0.00 | 0.00 | 79 | 1011.6 |
| 20260510044536 | 76 | 68 | 3.0 | 7.0 | 0.00 | 0.00 | 0.00 | 79 | 1011.6 |
| 20260510043017 | 77 | 77 | 2.0 | 4.0 | 0.00 | 0.00 | 0.00 | 78 | 1011.5 |
| 20260510041516 | 77 | 74 | 1.0 | 4.0 | 0.00 | 0.00 | 0.00 | 77 | 1011.3 |
| 20260510040030 | 77 | 71 | 1.0 | 4.0 | 0.00 | 0.00 | 0.00 | 77 | 1011.3 |
| 20260510034517 | 78 | 101 | 0.0 | 3.0 | 0.00 | 0.00 | 0.00 | 75 | 1011.2 |
| 20260510033015 | 78 | 67 | 2.0 | 4.0 | 0.00 | 0.00 | 0.00 | 76 | 1011.1 |
| 20260510031515 | 78 | 73 | 1.0 | 3.0 | 0.00 | 0.00 | 0.00 | 75 | 1011.2 |
| 20260510030016 | 78 | 84 | 2.0 | 4.0 | 0.00 | 0.00 | 0.00 | 74 | 1010.9 |
| 20260510024514 | 78 | 118 | 3.0 | 5.0 | 0.00 | 0.00 | 0.00 | 73 | 1010.8 |
| 20260510023013 | 78 | 87 | 3.0 | 6.0 | 0.00 | 0.00 | 0.00 | 74 | 1010.6 |
| 20260510021511 | 78 | 82 | 3.0 | 5.0 | 0.00 | 0.00 | 0.00 | 75 | 1010.4 |
| 20260510020018 | 78 | 121 | 2.0 | 5.0 | 0.00 | 0.00 | 0.00 | 75 | 1010.1 |
| 20260510014511 | 78 | 115 | 3.0 | 6.0 | 0.00 | 0.00 | 0.00 | 75 | 1009.9 |
| 20260510013011 | 79 | 82 | 3.0 | 5.0 | 0.00 | 0.00 | 0.00 | 75 | 1009.6 |
| 20260510011514 | 79 | 141 | 3.0 | 13.0 | 0.00 | 0.00 | 0.00 | 74 | 1009.6 |
| 20260510010009 | 79 | 71 | 4.0 | 10.0 | 0.00 | 0.00 | 0.00 | 73 | 1009.4 |
| 20260510004509 | 79 | 76 | 5.0 | 9.0 | 0.00 | 0.00 | 0.00 | 74 | 1009.2 |
| 20260510003009 | 79 | 115 | 5.0 | 10.0 | 0.00 | 0.00 | 0.00 | 75 | 1009.2 |
| 20260510001507 | 79 | 86 | 5.0 | 11.0 | 0.00 | 0.00 | 0.00 | 76 | 1009.2 |
| 20260510000014 | 79 | 96 | 5.0 | 11.0 | 0.00 | 0.00 | 0.00 | 77 | 1009.1 |
| 20260509234508 | 79 | 79 | 5.0 | 12.0 | 0.00 | 0.00 | 0.00 | 76 | 1009.0 |
| 20260509233008 | 79 | 71 | 6.0 | 9.0 | 0.00 | 0.00 | 0.00 | 77 | 1008.8 |
| 20260509231505 | 79 | 74 | 5.0 | 9.0 | 0.00 | 0.00 | 0.00 | 77 | 1008.7 |
| 20260509230009 | 79 | 56 | 5.0 | 12.0 | 0.00 | 0.00 | 0.00 | 77 | 1008.7 |
| 20260509224504 | 80 | 88 | 6.0 | 10.0 | 0.00 | 0.00 | 0.00 | 76 | 1008.6 |
| 20260509223004 | 80 | 61 | 6.0 | 11.0 | 0.00 | 0.00 | 0.00 | 76 | 1008.6 |
| 20260509221502 | 79 | 56 | 5.0 | 10.0 | 0.00 | 0.00 | 0.00 | 77 | 1008.6 |
| 20260509220001 | 79 | 121 | 5.0 | 10.0 | 0.00 | 0.02 | 0.00 | 76 | 1008.7 |
| 20260509214501 | 79 | 84 | 6.0 | 12.0 | 0.00 | 0.02 | 0.00 | 77 | 1008.7 |
| 20260509213102 | 79 | 58 | 5.0 | 10.0 | 0.00 | 0.02 | 0.00 | 76 | 1008.7 |
| 20260509211606 | 79 | 60 | 6.0 | 10.0 | 0.00 | 0.02 | 0.00 | 77 | 1009.0 |
| 20260509210059 | 79 | 87 | 6.0 | 9.0 | 0.00 | 0.02 | 0.00 | 76 | 1009.1 |
| 20260509204558 | 79 | 54 | 4.0 | 10.0 | 0.00 | 0.02 | 0.00 | 76 | 1009.2 |
| 20260509203106 | 79 | 93 | 4.0 | 9.0 | 0.00 | 0.02 | 0.00 | 77 | 1009.5 |
| 20260509201602 | 78 | 62 | 4.0 | 9.0 | 0.00 | 0.02 | 0.00 | 77 | 1009.8 |
| 20260509200106 | 77 | 75 | 5.0 | 10.0 | 0.00 | 0.02 | 0.00 | 78 | 1009.9 |
| 20260509194550 | 77 | 86 | 3.0 | 9.0 | 0.00 | 0.02 | 0.00 | 78 | 1010.1 |
| 20260509193109 | 77 | 124 | 6.0 | 12.0 | 0.00 | 0.02 | 0.00 | 78 | 1010.5 |
| 20260509191546 | 76 | 89 | 5.0 | 9.0 | 0.00 | 0.02 | 0.00 | 79 | 1010.8 |
| 20260509190046 | 75 | 62 | 2.0 | 8.0 | 0.00 | 0.02 | 0.00 | 79 | 1011.1 |
| 20260509184553 | 74 | 63 | 3.0 | 9.0 | 0.00 | 0.02 | 0.00 | 78 | 1011.3 |
| 20260509183042 | 73 | 94 | 3.0 | 6.0 | 0.00 | 0.02 | 0.00 | 74 | 1011.4 |
| 20260509181545 | 71 | 60 | 1.0 | 6.0 | 0.00 | 0.02 | 0.00 | 65 | 1011.7 |
| 20260509180041 | 71 | 86 | 4.0 | 7.0 | 0.00 | 0.02 | 0.00 | 64 | 1011.9 |